Home > Time Zones > World Clock > Weather > India > Betul > Past weeks

Flag for India Weather past 2 weeks in Betul, Madhya Pradesh, India

Now
77 °F

Haze.


Feels Like: 79 °F
Forecast: 77 / 103 °F
Wind: 6 mph from Southwest

Location: Nagpur Sonegaon

Current Time: Apr 27, 2015 at 8:19:56 AM

Latest Report: Apr 27, 2015 at 7:40 AM


Visibility: 2 mi

Pressure: 29.92 "Hg

Humidity: 61%

Dew point: 63 °F

Location of BetulLocation

Historic Weather in Betul — Graph

°F

Betul temperature yesterday

Maximum temperature yesterday: 106 °F (at 3:10 PM)
Minimum temperature yesterday: 77 °F (at 3:40 AM)
Average temperature yesterday: 90 °F

Past Weeks' High & Low Weather Summary

 TemperatureHumidityPressure
High111 °F (Apr 19, 4:10 PM)94% (Apr 14, 6:40 AM)30.04 "Hg (Apr 14, 6:40 AM)
Low63 °F (Apr 13, 6:10 AM)14% (Apr 20, 5:40 PM)29.65 "Hg (Apr 18, 4:10 PM)
Average88 °F44%29.82 "Hg
* Reported Apr 12 8:10 AM — Apr 27 6:40 AM, Betul, Weather by CustomWeather, © 2015

Note: Actual official high and low records may vary slightly from our data, if they occured in-between our weather recording intervals... More about our weather records

Advertising

Betul weather history for previous 24 hours

 ConditionsComfort  
Time TempWeatherWind HumidityBarometerVisibility
6:40 AM
Mon, Apr 27
72 °FHaze.No wind65%29.92 "Hg2 mi
5:40 AM72 °FMild.2 mph61%29.89 "HgN/A
5:10 AM70 °FHaze.No wind60%29.86 "Hg2 mi
4:40 AM70 °FPassing clouds.No wind64%29.86 "Hg2 mi
3:40 AM72 °FPassing clouds.No wind61%29.83 "Hg2 mi
3:10 AM73 °FPassing clouds.2 mph57%29.83 "Hg2 mi
2:40 AM73 °FPassing clouds.No wind69%29.83 "Hg2 mi
1:10 AM75 °FPassing clouds.2 mph54%29.83 "Hg2 mi
12:10 AM77 °FPassing clouds.3 mph51%29.83 "Hg2 mi
11:10 PM
Sun, Apr 26
79 °FPassing clouds.7 mph48%29.83 "Hg2 mi
9:40 PM81 °FPassing clouds.2 mph42%29.80 "Hg2 mi
8:40 PM82 °FHaze.3 mph40%29.77 "Hg2 mi
7:40 PM86 °FPassing clouds.7 mph35%29.74 "Hg2 mi
7:10 PM88 °FPassing clouds.5 mph35%29.74 "Hg2 mi
6:40 PM88 °FScattered clouds.8 mph35%29.71 "Hg2 mi
5:40 PM104 °FBroken clouds.8 mph23%29.71 "Hg3 mi
4:40 PM106 °FScattered clouds.6 mph26%29.68 "Hg4 mi
4:10 PM106 °FPassing clouds.5 mph26%29.71 "Hg4 mi
3:40 PM106 °FPassing clouds.5 mph28%29.71 "Hg4 mi
3:10 PM106 °FPassing clouds.5 mph28%29.74 "Hg4 mi
2:10 PM104 °FClear.3 mph33%29.77 "Hg4 mi
1:40 PM102 °FClear.7 mph35%29.77 "Hg4 mi
12:40 PM100 °FClear.7 mph29%29.83 "Hg4 mi
12:10 PM99 °FClear.9 mph31%29.83 "Hg4 mi
11:40 AM97 °FClear.12 mph32%29.86 "Hg4 mi
11:10 AM95 °FPassing clouds.9 mph34%29.86 "Hg4 mi
10:40 AM95 °FClear.9 mph34%29.89 "Hg4 mi
10:10 AM91 °FPassing clouds.12 mph36%29.89 "Hg4 mi
9:10 AM86 °FPassing clouds.12 mph40%29.89 "Hg4 mi
8:40 AM86 °FPassing clouds.12 mph40%29.89 "Hg4 mi
8:10 AM84 °FHaze.12 mph43%29.89 "Hg3 mi
Weather by CustomWeather, © 2015

See weather overviewHow to use our weather pages